Location: Blangy-Tronville
(49.8790°N, 2.4226°E)
Time: 20:23:24
(UTC+00:00)

ATLAS CENTAUR R/B - Pass Details

Date: 18 November 2025
Orbit: 343 x 422 km, 64.6° (Epoch: 10 December)

Event Time Altitude Azimuth Distance (km) Brightness Sun altitude
Rises 17:21:40 0° 274° (W) 2,437 6.1 -12.5°
Reaches altitude 10° 17:24:37 10° 301° (WNW) 1,570 4.3 -13.0°
Maximum altitude 17:26:29 14° 334° (NNW) 1,356 3.5 -13.3°
Drops below altitude 10° 17:28:22 10° 7° (N) 1,568 3.4 -13.6°
Enters shadow 17:29:05 - 16° (NNE) 1,739 3.6 -13.7°
